Location: Peebles
(55.6412°N, 3.1714°W)
Time: 18:27:29
(UTC+01:00)

USA 238 DEB - Pass Details

Date: 21 January 2022
Orbit: 969 x 1243 km, 63.4° (Epoch: 04 May)

Event Time Altitude Azimuth Distance (km) Brightness Sun altitude
Rises 21:10:45 0° 284° (WNW) 3,799 7.5 -39.2°
Reaches altitude 10° 21:13:27 10° 290° (WNW) 2,883 6.6 -39.5°
Enters shadow 21:18:06 38° 324° (NW) 1,624 4.9 -40.1°
